Regional Weather Roundup
Issued by NWS

Home | Current Version | Previous Version | Graphics & Text | Print | Product List | Glossary Off
Versions: 1 2 3 4 5 6 7 8 9 10 11 12 13 14 15 16 17 18 19 20 21 22 23 24 25 26 27 28 29 30 31 32 33 34 35 36 37 38 39 40 41 42 43 44 45 46 47 48 49 50

000
ASUS43 KMPX 312310
RWRMN
WEATHER ROUNDUP FOR MINNESOTA
NATIONAL WEATHER SERVICE TWIN CITIES/CHANHASSEN MN
600 PM CDT FRI JUL 31 2015


NOTE: "FAIR" INDICATES FEW OR NO CLOUDS BELOW 12,000 FEET WITH NO
SIGNIFICANT WEATHER AND/OR OBSTRUCTIONS TO VISIBILITY. N/A MEANS
CURRENT SKY AND/OR WEATHER CONDITIONS ARE NOT AVAILABLE.

MNZ060>063-068>070-010000-
   Twin Cities Metro

CITY           SKY/WX    TMP DP  RH WIND       PRES   REMARKS
TWIN CITIES    MOSUNNY   81  52  36 NW14      29.99F
ST PAUL        SUNNY     79  50  36 NW18      29.99S
CRYSTAL        MOSUNNY   83  52  34 W16       29.98F
BLAINE         MOSUNNY   82  50  32 NW13      29.99F
LAKEVILLE      SUNNY     79  54  41 W12G18    30.01F
EDEN PRAIRIE   SUNNY     82  53  36 NW15      30.00F
SOUTH ST PAUL  MOSUNNY   82  49  31 W12G18    29.99F
LAKE ELMO      FAIR      79  50  36 NW14G20   30.00F
$$
MNZ001>005-007-008-013>017-022>024-027-028-010000-
   Northwest Minnesota

CITY           SKY/WX    TMP DP  RH WIND       PRES   REMARKS
BEMIDJI        PTSUNNY   77  48  36 NW15G25   29.99S
HALLOCK        MOSUNNY   79  48  34 NW10G16   29.96F
ROSEAU         SUNNY     75  54  46 NW13G22   29.96S
WARROAD        MOSUNNY   75  54  46 W15G25    29.95S
THIEF RVR FALL MOSUNNY   77  48  36 NW14      29.99S
CROOKSTON      SUNNY     81  48  32 NW15G21   29.99F
FOSSTON        SUNNY     79  46  31 NW14      30.01S
DETROIT LAKES  SUNNY     79  52  38 NW16G24   30.04S
MOORHEAD       SUNNY     79  59  50 NW9       30.01F
PARK RAPIDS    MOSUNNY   79  48  33 NW17G24   30.01S
MAHNOMEN       FAIR      77  52  41 NW12G20   30.00F
$$
MNZ006-009>011-018-025>026-010000-
   North Central Minnesota

CITY           SKY/WX    TMP DP  RH WIND       PRES   REMARKS
BAUDETTE       MOSUNNY   76  49  38 W16G28    29.93S
FLAG ISLAND    MOSUNNY   73  54  49 NW21G26   29.90S
INTL FALLS     MOSUNNY   73  53  49 NW13G23   29.90S
WASKISH        MOSUNNY   75  54  46 W15G23    29.96S
BIG FORK       SUNNY     75  46  35 W8G18     29.95S
LONGVILLE      SUNNY     77  52  41 W9        29.98F
GRAND RAPIDS   SUNNY     75  46  35 NW17G25   29.96F
CRANE LAKE     CLOUDY    66  57  72 CALM      29.91F
ORR            SUNNY     73  46  38 W12G20    29.90S
COOK           SUNNY     75  52  43 W12       29.92F
WALKER         FAIR      74  48  39 W14G23    29.99S
$$
MNZ012-019>021-037-010000-
   Northeast Minnesota

CITY           SKY/WX    TMP DP  RH WIND       PRES   REMARKS
DULUTH         MOSUNNY   78  49  35 NW17G26   29.93S
ELY            PTSUNNY   64  55  72 NW5       29.92F
HIBBING        MOSUNNY   74  47  38 W16G33    29.93F
EVELETH        MOSUNNY   77  48  36 NW16G25   29.93F
DULUTH HARBOR  MOSUNNY   79  54  41 W23       29.91S
TWO HARBORS    PTSUNNY   73  61  64 CALM      29.89S
SILVER BAY     MOSUNNY   75  54  46 W8        29.88F
GRAND MARAIS     N/A     74  54  49 W8        29.85S
G MARAIS ARPRT   N/A     66  52  59 W13G22    29.90S
$$
MNZ029>031-032-039>041-046>048-054>057-064-010000-
   West Central Minnesota

CITY           SKY/WX    TMP DP  RH WIND       PRES   REMARKS
FERGUS FALLS   MOSUNNY   81  57  44 NW10      30.01F
WHEATON        SUNNY     81  57  44 W5        30.04F
MORRIS         SUNNY     81  59  47 W7        30.03F
ALEXANDRIA     MOSUNNY   79  55  43 NW12      30.05F
ELBOW LAKE     FAIR      79  57  47 NW8       30.03F
WADENA         MOSUNNY   75  54  46 NW14      30.02S
GLENWOOD       SUNNY     79  54  41 NW13      30.05F
APPLETON       SUNNY     82  52  34 NW6       30.03F
BENSON         SUNNY     81  54  39 N12       30.04F
ORTONVILLE     SUNNY     82  55  39 W6        30.04S
MADISON        SUNNY     81  55  41 CALM      30.04F
WILLMAR        FAIR      81  55  41 NW9       30.05F
$$
MNZ033>034-036-042>043-049>051-058-059-010000-
   Central Minnesota

CITY           SKY/WX    TMP DP  RH WIND       PRES   REMARKS
ST CLOUD       MOSUNNY   80  51  36 NW18G30   30.00F
SAUK CENTRE    FAIR      79  56  45 W12       30.03F
PAYNESVILLE    SUNNY     77  52  40 W10       30.04F
AITKIN         MOSUNNY   79  48  34 NW7       29.96F
PINE RIVER     MOSUNNY   79  50  36 NW12G18   30.02S
BRAINERD       SUNNY     80  45  28 NW16G23   29.99F
STAPLES        MOSUNNY   79  48  34 NW9G22    30.01F
LONG PRAIRIE   FAIR      79  54  41 W15       30.03F
LITTLE FALLS   SUNNY     79  46  31 NW13G18   30.01S
LITCHFIELD     SUNNY     81  54  39 W12       30.04S
BUFFALO        SUNNY     80  52  38 W14       30.02S
MAPLE LAKE     SUNNY     81  57  44 W12G20    30.02F
$$
MNZ037-044-045-052-053-010000-
   East Central Minnesota

CITY           SKY/WX    TMP DP  RH WIND       PRES   REMARKS
PRINCETON      MOSUNNY   81  52  36 W14       29.99F
MORA           SUNNY     77  45  31 NW9G20    29.99F
CAMBRIDGE      SUNNY     82  57  42 NW13G18   29.97F
RUSH CITY      SUNNY     78  51  38 NW7       29.98S
MOOSE LAKE     SUNNY     77  46  33 NW10G16   29.94F
HINCKLEY       FAIR      77  52  41 NW8       29.97S
CLOQUET        SUNNY     77  43  29 W16G25    29.94F
MCGREGOR       SUNNY     77  46  33 W14G23    29.97F
$$
MNZ071>073-080-081-089-090-097-098-010000-
   Southwest Minnesota

CITY           SKY/WX    TMP DP  RH WIND       PRES   REMARKS
MONTEVIDEO     SUNNY     86  57  37 N3        30.06F
GRANITE FALLS  SUNNY     81  57  44 W3        30.06F
CANBY          SUNNY     82  58  43 CALM      30.06S
MARSHALL       SUNNY     82  55  39 N3        30.07F
REDWOOD FALLS  SUNNY     83  54  36 NW6       30.04F
OLIVIA         SUNNY     77  52  41 NW8       30.04F
PIPESTONE      SUNNY     81  55  41 W5        30.09S
WINDOM         SUNNY     81  55  41 CALM      30.07F
WORTHINGTON    SUNNY     81  54  39 CALM      30.08F
JACKSON        SUNNY     81  52  36 NW5       30.08F
TRACY          SUNNY     82  57  42 CALM      30.07F
SLAYTON        SUNNY     82  54  37 CALM      30.09F
$$
MNZ065>067-074>077-082>085-091>093-010000-
   South Central Minnesota

CITY           SKY/WX    TMP DP  RH WIND       PRES   REMARKS
MANKATO        SUNNY     81  55  41 NW12      30.03F
NEW ULM        SUNNY     81  52  36 NW9       30.04F
ST JAMES       SUNNY     81  61  50 W9        30.06F
FAIRMONT       SUNNY     81  52  36 N7        30.06S
GLENCOE        SUNNY     81  59  47 W12       30.02F
FARIBAULT      SUNNY     79  57  47 NW9       30.03F
OWATONNA       SUNNY     79  55  44 NW12      30.04S
WASECA         SUNNY     77  57  50 NW9       30.05F
ALBERT LEA     SUNNY     79  55  44 W7        30.05S
$$
MNZ078>079-086>088-094>096-010000-
   Southeast Minnesota

CITY           SKY/WX    TMP DP  RH WIND       PRES   REMARKS
ROCHESTER      SUNNY     77  56  48 NW15      30.03F
RED WING       SUNNY     82  46  28 NW9G17    29.97F
STANTON        SUNNY     80  54  40 W14G20    30.00S
DODGE CENTER   SUNNY     77  54  44 NW13      30.03F
WINONA         SUNNY     79  50  36 NW13      29.98F
AUSTIN         SUNNY     81  54  39 NW13      30.04F
PRESTON        SUNNY     76  54  45 NW14      30.03F
$$
ABBREVIATIONS USED IN REMARKS
   TC - TEMPERATURES IN CELSIUS
  WCI - WIND CHILL INDEX
   HX - HEAT INDEX
  VSB - VISIBILITY
$$


USA.gov is the U.S. government's official web portal to all federal, state and local government web resources and services.